Location: Unspecified
(0.0000°N, 0.0000°E)
Time: 03:18:55
(UTC+00:00)

Vanguard 1 - Pass Details

Date: 18 December 2023
Orbit: 653 x 3826 km, 34.3° (Epoch: 22 February)

Event Time Altitude Azimuth Distance (km) Brightness Sun altitude
Rises 21:21:30 0° 313° (NW) 6,856 14.5 -45.7°
Reaches altitude 10° 21:25:36 10° 315° (NW) 6,145 14.1 -46.5°
Enters shadow 21:40:23 55° 337° (NNW) 4,215 12.9 -49.5°
Maximum altitude 21:47:23 73° 38° (NE) 3,939 - -50.9°
Exits shadow 22:08:15 13° 119° (ESE) 6,033 13.9 -54.8°
Drops below altitude 10° 22:09:12 10° 120° (ESE) 6,193 14.0 -55.0°
Sets 22:13:18 0° 121° (ESE) 6,913 14.3 -55.7°
